sat.trackr.live / text

‹ back to catalog

COSMOS 2434 (721)

NORAD 32393 · 2007-065A

PAYLOAD ACTIVE UNKNOWN

§ Identity

Operator
Country
CIS
Launch date
2007-12-25
Launch site
TYMSC
Launch vehicle
Mass (kg)
RCS (m²)
5.01

Purposes: nav

External: N2YO · Heavens-Above · Gunter

§ Orbital elements

Epoch: 2026-09-18T02:43:23.244672Z

Period
675.73 min
Inclination
64.3188°
Eccentricity
0.0001751
Mean motion
2.13101315 rev/d
Perigee alt
19,125.5 km
Apogee alt
19,134.4 km
Semi-major
25,508.1 km
B*
0.0000e+0
RAAN
188.7833°
Arg perigee
40.2628°
Mean anomaly
67.6000°
Rev number
14,575

§ Raw data

COSMOS 2434 (721)1 32393U 07065A   26261.11346348  .00000000  00000+0  00000+0 0  99932 32393  64.3188 188.7833 0001751  40.2628  67.6000  2.13101315145754

JSON: /api/v1/satellites/32393 · /tle

For live sub-satellite position, see the globe view (requires WebGL).

§ Visibility from observer

Set your observer location to see the next 7 days of passes ≥ 10°. The values pass through the URL so the page stays shareable.

No JS? Fill the form by hand. The geolocation button needs JavaScript.